Regional Weather Roundup
Issued by NWS

Home | Current Version | Previous Version | Text Only | Print | Product List | Glossary On
Versions: 1 2 3 4 5 6 7 8 9 10 11 12 13 14 15 16 17 18 19 20 21 22 23 24 25 26 27 28 29 30 31 32 33 34 35 36 37 38 39 40 41 42 43 44 45 46 47 48 49 50
000
ASUS45 KCYS 211710
RWRWY

WYOMING REGIONAL WEATHER ROUNDUP
NATIONAL WEATHER SERVICE CHEYENNE WY
1000 AM MST TUE NOV 21 2017

NOTE:  "FAIR" INDICATES FEW OR NO CLOUDS BELOW 12,000 FEET
WITH NO SIGNIFICANT WEATHER AND/OR OBSTRUCTIONS TO VISIBILITY.

WYZ001-211800-
YELLOWSTONE NATIONAL PARK

CITY           SKY/WX    TMP DP  RH WIND       PRES   REMARKS
LK YELLOWSTONE   N/A     31  26  82 CALM      30.32R
W YELLOWSTONE  NOT AVBL

$$
WYZ002>013-054>058-071-098>099-211800-
NORTHERN WYOMING

CITY           SKY/WX    TMP DP  RH WIND       PRES   REMARKS
JACKSON        NOT AVBL
CODY           FAIR      37  31  78 SW7       30.25F WCI  32
GREYBULL       FAIR      35  28  75 E8        30.30R WCI  29
WORLAND        CLOUDY    35  29  78 E7        30.30R WCI  29
SHERIDAN       FAIR      30  27  88 SE9       30.28F WCI  22
BUFFALO        CLOUDY    28  24  85 S15       30.27S WCI  16
GILLETTE       PTSUNNY   29  22  75 W7        30.31R WCI  22
HULETT         CLOUDY    28  23  80 W7        30.30S WCI  21
NEWCASTLE      FAIR      32  18  55 NW13      30.30R WCI  22

$$
WYZ014>020-022>026-101>103-211800-
CENTRAL WYOMING

CITY           SKY/WX    TMP DP  RH WIND       PRES   REMARKS
BIG PINEY      FOG       32  32 100 NW8       30.32R VSB 1   WCI  25
PINEDALE       PTSUNNY   32  32 100 W3        30.31S
DUBOIS         PTSUNNY   34  28  80 NE7       30.26R WCI  28
LANDER           N/A     39  32  76 NE7       30.26R WCI  34
RIVERTON       FAIR      40  33  76 E7        30.28R
CASPER         CLOUDY    31  26  82 CALM      30.30R
DOUGLAS        CLOUDY    31  25  78 VRB5      30.32S WCI  26

$$
WYZ021-027>030-104>119-211800-
SOUTHERN WYOMING

CITY           SKY/WX    TMP DP  RH WIND       PRES   REMARKS
EVANSTON       PTSUNNY   44  37  76 W16       30.37R
KEMMERER       CLOUDY    37  34  87 W3        30.35R
FORT BRIDGER   CLOUDY    43  39  86 W13       30.38R
ROCK SPRINGS   FAIR      41  34  76 W20       30.31R
DIXON          CLOUDY    40  33  76 CALM      30.35R
RAWLINS        PTSUNNY   39  33  79 W14       30.30R WCI  31
SARATOGA       CLOUDY    37  37 100 N8        30.31R WCI  31
LARAMIE        PTSUNNY   38  34  85 N10       30.26R WCI  31
CHEYENNE       FAIR      37  31  78 N13       30.28R WCI  29
TORRINGTON     CLOUDY    40  26  57 NW12      30.31R WCI  33
PINE BLUFFS    CLOUDY    37  28  70 MISG      30.30R

$$



USA.gov is the U.S. government's official web portal to all federal, state and local government web resources and services.